Wind_Speed
37 34 23 33 30 25 21 20 22 21 17 15 16 16 15 15 15 16 20 21 18 19
41 36 32 29 29 23 24 23 21 17 16 18 17 16 15 16 15 16 17 21 25 21
35 35 34 33 37 32 25 18 21 19 19 20 19 17 13 16 15 17 16 20 22 23
37 39 35 40 40 33 21 25 24 23 20 20 19 16 14 16 14 15 15 18 17 19
39 36 41 43 34 28 25 24 26 22 20 20 19 18 17 16 13 15 13 17 16 18
35 34 34 36 33 30 25 27 26 24 25 22 22 19 14 12 12 13 15 16 16 15
21 21 24 28 28 25 27 27 25 25 21 20 19 19 18 16 12 14 15 16 16 18
15 17 21 23 23 23 26 26 23 24 21 23 21 19 15 16 17 22 21 21 21 22
14 14 16 17 19 22 26 29 29 26 25 26 25 20 21 17 14 18 23 22 24 24
9 13 15 16 18 21 27 29 26 28 28 28 24 20 23 20 18 20 23 23 25 25
8 11 12 13 16 19 24 29 29 29 27 23 25 23 23 20 20 23 24 23 24 22
5 5 9 11 13 17 21 25 27 28 28 26 26 25 22 22 23 24 24 23 24 23
3 5 2 7 10 13 16 20 24 26 25 24 25 24 22 23 26 26 25 25 25 23
3 5 6 3 4 9 13 16 21 23 24 24 23 22 21 22 28 28 27 27 26 25
Wind_Direction
201 205 206 199 213 212 211 213 217 219 224 228 231 234 229 231 227 224 215 208 207 217
211 212 212 207 211 213 208 214 220 219 225 227 229 227 224 224 220 229 222 217 210 208
217 220 216 214 214 217 215 220 215 217 224 222 226 228 230 232 228 230 229 227 223 218
218 215 215 224 216 217 215 229 216 218 224 229 224 213 218 228 235 228 232 228 221 214
216 219 210 221 216 223 223 224 222 217 219 225 226 220 217 223 229 227 226 221 219 216
223 223 222 225 227 222 230 226 214 216 222 223 220 207 205 218 223 227 221 213 213 209
222 229 227 224 224 230 220 219 210 218 221 228 216 217 212 196 212 238 228 221 212 211
214 218 226 229 224 216 221 210 214 212 216 212 207 210 196 194 204 217 211 213 217 215
200 216 225 230 231 219 216 213 210 210 219 206 213 200 202 219 235 218 214 213 213 214
208 213 217 220 223 223 218 212 215 214 215 213 220 212 213 232 223 218 223 217 218 217
215 214 211 208 216 217 221 218 212 213 218 227 221 221 224 226 221 219 224 220 227 224
14 197 205 203 207 212 219 224 222 220 218 216 213 220 215 217 215 217 220 222 227 224
23 19 134 200 202 209 217 223 223 220 220 216 215 216 216 215 214 218 219 219 226 228
6 355 9 40 229 214 216 219 220 218 216 214 222 225 222 220 214 221 222 221 220 225
Height
1490 1498 1503 1503 1506 1508 1509 1516 1520 1525 1528 1531 1533 1535 1537 1539 1541 1543 1545 1547 1550 1551
1481 1488 1495 1501 1503 1504 1505 1509 1516 1522 1523 1524 1528 1530 1532 1534 1535 1538 1541 1543 1545 1546
1472 1482 1487 1496 1496 1495 1500 1505 1512 1515 1518 1521 1522 1525 1526 1531 1530 1534 1535 1539 1540 1542
1463 1471 1481 1489 1491 1492 1492 1498 1505 1508 1511 1517 1520 1521 1522 1528 1526 1527 1530 1534 1537 1537
1459 1466 1472 1484 1486 1491 1494 1497 1501 1505 1507 1511 1514 1517 1519 1523 1522 1526 1525 1530 1532 1534
1454 1463 1468 1476 1480 1484 1487 1491 1495 1500 1504 1505 1506 1511 1516 1519 1520 1524 1525 1527 1529 1533
1455 1459 1461 1468 1473 1477 1481 1487 1490 1496 1501 1505 1507 1507 1509 1507 1512 1520 1523 1526 1526 1529
1452 1455 1462 1467 1468 1469 1478 1484 1487 1492 1498 1501 1505 1505 1507 1509 1509 1510 1512 1518 1522 1525
1449 1454 1459 1461 1464 1466 1473 1478 1482 1485 1493 1497 1499 1502 1505 1507 1510 1512 1512 1515 1517 1520
1447 1451 1456 1458 1462 1464 1469 1474 1478 1481 1489 1493 1498 1500 1502 1504 1506 1509 1512 1513 1514 1518
1450 1453 1455 1456 1459 1463 1467 1470 1473 1479 1485 1490 1493 1496 1498 1500 1503 1505 1508 1509 1512 1517
1452 1451 1452 1455 1458 1461 1464 1468 1471 1475 1480 1484 1488 1491 1494 1496 1499 1502 1504 1508 1508 1510
1453 1452 1453 1454 1457 1459 1462 1465 1469 1472 1477 1480 1485 1487 1491 1493 1495 1497 1500 1503 1505 1507
1454 1453 1453 1454 1455 1457 1460 1463 1466 1470 1474 1478 1481 1484 1487 1490 1491 1494 1497 1500 1500 1503